F6HBW-13 Weather Reports


time (UTC)temp
F
wind
direction
speed
knots
gust
knots
rain 1hr
in
rain 24hr
in
rain mn
in
humidity
%
barometer
mb
20260510020737 60 170 0.0 1.7 0.00 0.00 0.00 82 1008.9
20260510015726 60 188 1.7 3.5 0.00 0.00 0.00 82 1008.9
20260510014733 60 157 0.0 3.5 0.00 0.00 0.00 82 1009.1
20260510014347 60 140 1.7 2.6 0.00 0.00 0.00 82 1009.0
20260510013732 60 155 0.9 4.3 0.00 0.00 0.00 82 1008.8
20260510012738 59 265 0.0 3.5 0.00 0.00 0.00 83 1008.9
20260510011746 59 280 1.7 5.2 0.00 0.00 0.00 84 1008.9
20260510011340 59 276 0.0 0.0 0.00 0.00 0.00 84 1008.9
20260510010726 59 307 0.0 0.0 0.00 0.00 0.00 84 1009.0
20260510005731 59 148 0.9 1.7 0.00 0.00 0.00 84 1009.2
20260510004759 59 128 0.0 0.0 0.00 0.00 0.00 84 1009.2
20260510004332 59 128 0.0 0.0 0.00 0.00 0.00 84 1009.4
20260510003721 59 128 0.0 0.0 0.00 0.00 0.00 84 1009.4
20260510002730 59 128 0.0 0.0 0.00 0.00 0.00 84 1009.4
20260510001738 59 128 0.0 0.0 0.00 0.00 0.00 84 1009.4
20260510001330 59 128 0.0 0.0 0.00 0.00 0.00 84 1009.4
20260510000739 59 128 0.0 0.0 0.00 0.00 0.00 84 1009.5
20260509235748 59 128 0.0 0.0 0.00 0.00 0.00 84 1009.5
20260509234736 59 128 0.0 10.4 0.00 0.00 0.00 85 1009.8
20260509234330 59 137 2.6 10.4 0.00 0.00 0.00 86 1010.0
20260509233735 58 171 2.6 6.1 0.00 0.00 0.00 86 1010.0
20260509232725 58 167 0.0 0.9 0.00 0.00 0.00 85 1009.5
20260509231728 59 167 0.9 3.5 0.00 0.00 0.00 84 1009.6
20260509231342 59 168 0.0 0.0 0.00 0.00 0.00 84 1009.8
20260509230728 59 168 0.0 0.0 0.00 0.00 0.00 84 1009.5
20260509225735 59 168 0.0 0.0 0.00 0.00 0.00 83 1009.5
20260509224723 59 168 0.0 0.0 0.00 0.00 0.00 80 1009.6
20260509224337 59 168 0.0 0.0 0.00 0.00 0.00 80 1009.5
20260509223723 59 168 0.0 0.0 0.00 0.00 0.00 81 1009.6
20260509222731 59 168 0.0 0.0 0.00 0.00 0.00 81 1009.6
20260509221736 59 168 0.0 0.0 0.00 0.00 0.00 80 1009.5
20260509221350 60 168 0.0 0.0 0.00 0.00 0.00 80 1009.5
20260509220735 60 168 0.0 0.0 0.00 0.00 0.00 79 1009.5
20260509215733 60 168 0.0 0.0 0.00 0.00 0.00 78 1009.6
20260509214743 60 168 0.0 0.0 0.00 0.00 0.00 79 1009.6
20260509214336 60 168 0.0 0.0 0.00 0.00 0.00 78 1009.6
20260509213725 60 168 0.0 0.0 0.00 0.00 0.00 77 1009.6
20260509212734 60 168 0.0 0.0 0.00 0.00 0.00 76 1009.7
20260509211744 61 168 0.0 0.0 0.00 0.00 0.00 76 1009.7
20260509211337 61 168 0.0 0.0 0.00 0.00 0.00 76 1009.6
20260509210747 61 168 0.0 0.0 0.00 0.00 0.00 76 1009.7
20260509205753 61 168 0.0 0.0 0.00 0.00 0.00 75 1009.7
20260509204740 62 168 0.0 0.0 0.00 0.00 0.00 74 1009.7
20260509204334 62 168 0.0 0.0 0.00 0.00 0.00 74 1009.6
20260509203723 63 168 0.0 0.0 0.00 0.00 0.00 73 1009.6
20260509202734 63 168 0.0 0.0 0.00 0.00 0.00 72 1009.6
20260509201741 64 168 0.0 0.0 0.00 0.00 0.00 71 1009.8
20260509201335 64 168 0.0 0.0 0.00 0.00 0.00 71 1009.7
20260509200724 65 168 0.0 0.0 0.00 0.00 0.00 70 1009.7
20260509195732 65 168 0.0 0.0 0.00 0.00 0.00 69 1009.6
20260509194741 66 168 0.0 0.0 0.00 0.00 0.00 68 1009.4
20260509194335 67 168 0.0 0.0 0.00 0.00 0.00 67 1009.3
20260509193745 68 168 0.0 0.0 0.00 0.00 0.00 66 1009.3
20260509192733 69 168 0.0 0.0 0.00 0.00 0.00 64 1009.3
20260509191740 70 168 0.0 0.0 0.00 0.00 0.00 61 1009.2
20260509191334 70 168 0.0 0.0 0.00 0.00 0.00 60 1009.2
20260509190723 70 168 0.0 0.0 0.00 0.00 0.00 59 1009.2
20260509185731 71 168 0.0 0.0 0.00 0.00 0.00 57 1009.2
20260509184739 72 168 0.0 0.0 0.00 0.00 0.00 55 1009.1
20260509184333 72 168 0.0 0.0 0.00 0.00 0.00 54 1009.2
20260509183741 72 164 0.0 0.9 0.00 0.00 0.00 54 1009.1
20260509182731 72 180 0.0 2.6 0.00 0.00 0.00 53 1009.1
20260509181738 73 175 0.0 0.0 0.00 0.00 0.00 52 1008.9
20260509181332 73 175 0.0 0.0 0.00 0.00 0.00 52 1008.9
20260509180740 73 173 0.0 0.0 0.00 0.00 0.00 51 1009.0
20260509175729 74 173 0.9 3.5 0.00 0.00 0.00 50 1008.9
20260509174738 74 171 0.9 4.3 0.00 0.00 0.00 48 1008.9
20260509174352 74 171 0.9 3.5 0.00 0.00 0.00 49 1008.9
20260509173739 75 144 0.0 2.6 0.00 0.00 0.00 48 1008.8
20260509172729 75 148 0.0 0.0 0.00 0.00 0.00 47 1008.7
20260509171732 76 137 0.0 0.0 0.00 0.00 0.00 46 1008.8
20260509171327 76 136 0.0 5.2 0.00 0.00 0.00 46 1008.8
20260509170735 76 142 0.0 5.2 0.00 0.00 0.00 44 1008.7
20260509165802 77 146 0.0 7.0 0.00 0.00 0.00 44 1008.8
20260509164729 77 127 1.7 6.1 0.00 0.00 0.00 43 1008.9
20260509164340 77 130 0.0 0.0 0.00 0.00 0.00 44 1008.9
20260509163749 78 128 0.0 1.7 0.00 0.00 0.00 46 1009.0
20260509162757 77 107 0.0 2.6 0.00 0.00 0.00 43 1008.9
20260509161801 77 96 0.0 7.0 0.00 0.00 0.00 44 1009.0
20260509161333 77 142 0.9 7.0 0.00 0.00 0.00 42 1009.1
20260509160742 77 53 0.0 0.9 0.00 0.00 0.00 42 1009.1
20260509155726 77 58 0.0 2.6 0.00 0.00 0.00 42 1009.2
20260509154732 77 180 0.0 2.6 0.00 0.00 0.00 42 1009.2
20260509154326 77 119 0.0 4.3 0.00 0.00 0.00 43 1009.3
20260509153751 77 137 0.9 4.3 0.00 0.00 0.00 44 1009.4
20260509152736 77 51 0.0 6.1 0.00 0.00 0.00 44 1009.6
20260509151739 77 159 0.0 2.6 0.00 0.00 0.00 45 1009.7
20260509151353 77 259 0.0 7.0 0.00 0.00 0.00 43 1009.8
20260509150741 77 148 0.9 7.8 0.00 0.00 0.00 44 1009.8
20260509145732 77 63 0.0 6.1 0.00 0.00 0.00 45 1009.9
20260509144723 76 150 0.9 5.2 0.00 0.00 0.00 44 1009.9
20260509144338 76 132 0.0 3.5 0.00 0.00 0.00 45 1009.9
20260509143802 76 176 0.0 6.1 0.00 0.00 0.00 43 1009.9
20260509142728 76 144 0.0 4.3 0.00 0.00 0.00 42 1010.0
20260509141733 77 168 0.0 7.0 0.00 0.00 0.00 42 1010.1
20260509141328 77 221 1.7 7.0 0.00 0.00 0.00 44 1010.2
20260509140734 77 187 0.9 7.0 0.00 0.00 0.00 43 1010.3
20260509135740 77 243 0.9 5.2 0.00 0.00 0.00 42 1010.3
20260509134729 78 138 0.0 2.6 0.00 0.00 0.00 46 1010.4
20260509134344 78 149 0.0 1.7 0.00 0.00 0.00 45 1010.4
20260509133730 78 150 0.0 2.6 0.00 0.00 0.00 49 1010.5
20260509132739 79 143 1.7 6.1 0.00 0.00 0.00 42 1010.7
20260509131747 80 83 0.0 2.6 0.00 0.00 0.00 41 1010.7
20260509131400 80 126 0.0 6.1 0.00 0.00 0.00 43 1010.7
20260509130725 80 142 0.9 6.1 0.00 0.00 0.00 43 1010.6
20260509125734 80 143 0.0 3.5 0.00 0.00 0.00 44 1010.5
20260509124739 80 186 0.0 5.2 0.00 0.00 0.00 44 1010.5
20260509124331 80 151 0.9 4.3 0.00 0.00 0.00 43 1010.6
20260509123735 80 147 0.0 0.9 0.00 0.00 0.00 42 1010.6
20260509122737 79 150 0.9 4.3 0.00 0.00 0.00 45 1010.7
20260509121724 79 146 0.0 8.7 0.00 0.00 0.00 43 1010.7
20260509121405 78 150 0.0 8.7 0.00 0.00 0.00 42 1010.7
20260509120731 79 238 1.7 5.2 0.00 0.00 0.00 43 1010.8
20260509115736 79 54 0.9 2.6 0.00 0.00 0.00 44 1011.0
20260509114741 78 68 0.0 2.6 0.00 0.00 0.00 45 1011.1
20260509114355 78 140 0.0 5.2 0.00 0.00 0.00 45 1011.1
20260509113739 78 142 0.9 5.2 0.00 0.00 0.00 45 1011.2
20260509112848 78 130 0.9 6.1 0.00 0.00 0.00 45 1011.3
20260509111733 77 142 0.9 7.0 0.00 0.00 0.00 48 1011.3
20260509111344 77 154 0.9 7.0 0.00 0.00 0.00 49 1011.3
20260509110728 77 123 0.0 6.1 0.00 0.00 0.00 47 1011.4
20260509105726 76 74 0.0 3.5 0.00 0.00 0.00 49 1011.7
20260509104751 75 132 0.0 1.7 0.00 0.00 0.00 50 1011.8
20260509104341 75 66 0.0 0.9 0.00 0.00 0.00 49 1011.8
20260509103745 75 86 0.0 2.6 0.00 0.00 0.00 48 1011.8
20260509102724 74 71 0.9 3.5 0.00 0.00 0.00 49 1011.9
20260509101742 74 204 0.9 4.3 0.00 0.00 0.00 52 1012.0
20260509101334 74 173 0.9 4.3 0.00 0.00 0.00 49 1012.0
20260509100737 73 175 0.0 2.6 0.00 0.00 0.00 53 1011.9
20260509095736 72 189 0.0 1.7 0.00 0.00 0.00 53 1012.0
20260509094738 71 171 0.0 0.9 0.00 0.00 0.00 57 1012.0
20260509094349 70 61 0.0 1.7 0.00 0.00 0.00 57 1012.0
20260509093732 69 219 0.0 4.3 0.00 0.00 0.00 57 1012.0
20260509092732 67 146 0.0 1.7 0.00 0.00 0.00 60 1012.1
20260509091751 66 225 0.0 0.9 0.00 0.00 0.00 60 1012.1
20260509091340 66 236 0.0 0.9 0.00 0.00 0.00 62 1012.1
20260509090724 65 254 0.0 0.9 0.00 0.00 0.00 64 1012.1
20260509085726 64 149 0.0 0.0 0.00 0.00 0.00 64 1012.1
20260509084748 63 157 0.0 0.9 0.00 0.00 0.00 68 1012.2
20260509084355 63 230 0.0 0.9 0.00 0.00 0.00 69 1012.2
20260509083742 62 202 0.0 2.6 0.00 0.00 0.00 70 1012.4
20260509082802 61 112 0.0 0.0 0.00 0.00 0.00 74 1012.5
20260509081724 60 61 0.0 0.0 0.00 0.00 0.00 75 1012.5
20260509081359 60 148 0.0 0.0 0.00 0.00 0.00 75 1012.6
20260509080726 59 141 0.0 0.0 0.00 0.00 0.00 76 1012.6
20260509075746 59 66 0.0 0.0 0.00 0.00 0.00 78 1012.5
20260509074749 58 85 0.0 0.0 0.00 0.00 0.00 79 1012.6
20260509074340 58 84 0.0 0.0 0.00 0.00 0.00 80 1012.6
20260509073747 57 84 0.0 0.0 0.00 0.00 0.00 80 1012.8
20260509072733 56 69 0.0 0.9 0.00 0.00 0.00 81 1012.6
20260509071739 55 72 0.0 0.0 0.00 0.00 0.00 83 1012.6
20260509071334 55 69 0.0 0.0 0.00 0.00 0.00 84 1012.6
20260509070743 55 146 0.0 0.0 0.00 0.00 0.00 85 1012.6
20260509065755 54 56 0.0 0.0 0.00 0.00 0.00 86 1012.6
20260509064741 53 56 0.0 0.0 0.00 0.00 0.00 87 1012.7
20260509064334 53 56 0.0 0.0 0.00 0.00 0.00 87 1012.7
20260509063742 52 56 0.0 0.0 0.00 0.00 0.00 87 1012.6
20260509062750 52 57 0.0 0.0 0.00 0.00 0.00 88 1012.7
20260509061755 51 56 0.0 0.0 0.00 0.00 0.00 89 1012.7
20260509061328 51 57 0.0 0.0 0.00 0.00 0.00 89 1012.7
20260509060735 50 56 0.0 0.0 0.00 0.00 0.00 89 1012.7
20260509055725 50 56 0.0 0.0 0.00 0.00 0.00 89 1012.7
20260509054731 49 56 0.0 1.7 0.00 0.00 0.00 88 1012.7
20260509054345 49 68 0.0 2.6 0.00 0.00 0.00 88 1012.6
20260509053733 48 68 0.0 2.6 0.00 0.00 0.00 87 1012.6
20260509052737 48 68 0.0 0.0 0.00 0.00 0.00 85 1012.5
20260509051742 48 68 0.0 0.0 0.00 0.00 0.00 84 1012.5
20260509051334 48 68 0.0 2.6 0.00 0.00 0.00 84 1012.4
20260509050738 48 68 0.0 2.6 0.00 0.00 0.00 83 1012.5
20260509045724 48 68 0.0 1.7 0.00 0.00 0.00 83 1012.4
20260509044732 48 68 0.9 1.7 0.00 0.00 0.00 82 1012.4
20260509044344 48 68 0.0 0.0 0.00 0.00 0.00 82 1012.4
20260509043731 48 68 0.0 0.9 0.00 0.00 0.00 82 1012.3
20260509042737 48 68 0.0 0.0 0.00 0.00 0.00 81 1012.4
20260509041740 49 68 0.0 0.0 0.00 0.00 0.00 81 1012.3
20260509041354 49 68 0.0 0.0 0.00 0.00 0.00 81 1012.4
20260509040741 49 68 0.0 0.0 0.00 0.00 0.00 81 1012.3
20260509035728 49 68 0.0 0.0 0.00 0.00 0.00 81 1012.3
20260509034733 49 68 0.0 0.0 0.00 0.00 0.00 81 1012.2
20260509034346 49 68 0.0 0.9 0.00 0.00 0.00 81 1012.3
20260509033732 49 68 0.0 0.9 0.00 0.00 0.00 81 1012.3
20260509032740 50 68 0.0 0.0 0.00 0.00 0.00 81 1012.4
20260509031726 50 68 0.0 0.0 0.00 0.00 0.00 81 1012.4
20260509031341 50 68 0.0 0.0 0.00 0.00 0.00 81 1012.4
20260509030727 50 68 0.0 0.0 0.00 0.00 0.00 81 1012.4
20260509025752 50 68 0.9 1.7 0.00 0.00 0.00 81 1012.3
20260509024755 50 68 0.0 0.9 0.00 0.00 0.00 81 1012.4
20260509024327 50 68 0.0 0.0 0.00 0.00 0.00 81 1012.5
20260509023733 51 68 0.0 0.0 0.00 0.00 0.00 81 1012.6
20260509022739 51 68 0.0 2.6 0.00 0.00 0.00 81 1012.5
20260509021725 51 68 0.0 0.0 0.00 0.00 0.00 81 1012.6
20260509021405 51 68 0.0 0.0 0.00 0.00 0.00 81 1012.6